Location: Arroyo de Valdeoliva
(40.1604°N, 4.9878°W)
Time: 04:41:44
(UTC+00:00)

SOZ - Pass Details

Date: 11 December 2025
Orbit: 281 x 12149 km, 52.0° (Epoch: 13 January)

Event Time Altitude Azimuth Distance (km) Brightness Sun altitude
Rises 17:23:01 0° 239° (WSW) 3,739 11.7 -5.7°
Reaches altitude 10° 17:26:38 10° 244° (WSW) 1,947 9.5 -6.3°
Maximum altitude 17:30:09 52° 322° (NW) 452 4.5 -6.9°
Drops below altitude 10° 17:32:13 10° 42° (NE) 1,144 5.9 -7.3°
Enters shadow 17:32:21 - 43° (NE) 1,209 6.0 -7.3°
